Location: Newark
(49.8348°N, 24.0280°E)
Time: 07:56:33
(UTC+00:00)

Vanguard 1 Rocket - Visible Passes

Search period start: 21 January 2020 00:00
Search period end: 31 January 2020 00:00
Orbit: 650 x 4226 km, 34.3° (Epoch: 20 January)

Date Brightness Start Highest point End Pass type
(mag) Time Alt. Az. Time Alt. Az. Time Alt. Az.
21 Jan 12.3 17:18:26 10° WSW 17:26:19 12° SW 17:34:29 10° SSW visible
22 Jan 12.3 16:00:00 10° W 16:13:45 20° SW 16:29:25 10° S visible
24 Jan 12.5 16:05:00 10° WSW 16:15:27 15° SW 16:27:10 10° SSW visible
26 Jan 12.6 16:14:23 10° SW 16:17:14 10° SW 16:20:10 10° SW visible
